Terug naar catalogus

COSMOS 1473

ActiefMilitairLEO
NORAD 14171·PAYLOAD·🇷🇺 Russia

Gelanceerd Jul 6, 1983 vanaf Plesetsk Cosmodrome

Loading…

Volgende Passages (komende 24 uur)

TLE

VersSource: Space-Track

Epoch: Sep 14, 2026, 21:47 UTC

1 14171U 83069A   26257.90770537 -.00000023  00000-0 -43235-4 0  9998
2 14171  74.0230 228.0079 0043062 116.3353 272.1815 12.58768068984825

Volg COSMOS 1473 in realtime met AllMySat

Download on the App Store